When you browse on this site, cookies collect data to enhance your experience and personalize the content and advertising you see.
Visit our Privacy Policy to learn more. By continuing to use the site, you agree to this use of cookies and data.
  • In Schweiz
  • Länderverzeichnis
  • Für 7 Tage
  • Wassertemperatur
  • Satellitenkarten
  • Wetterkarte
  • Widgets
  • user-avatar
    Anmelden

    Stündliche Wetter Serednje

    Heute, 21 Februar, Donnerstag

    Zeit Temperatur Niederschläge Wind Luftdruck Luftfeuchtigkeit
    00:00 +1°C° 0 mm 6 m/S 739 mmHg 79%
    01:00 +1°C° 0 mm 6 m/S 739 mmHg 81%
    02:00 0°C° 0 mm 5 m/S 740 mmHg 82%
    03:00 -1°C° 0 mm 6 m/S 740 mmHg 84%
    04:00 -1°C° 0 mm 6 m/S 740 mmHg 85%
    05:00 -1°C° 0 mm 6 m/S 740 mmHg 87%
    06:00 -1°C° 0 mm 6 m/S 740 mmHg 87%
    07:00 -1°C° 0 mm 6 m/S 741 mmHg 88%
    08:00 -1°C° 0 mm 6 m/S 741 mmHg 89%
    09:00 -1°C° 0 mm 6 m/S 741 mmHg 86%
    10:00 +1°C° 0 mm 6 m/S 741 mmHg 83%
    11:00 +2°C° 0 mm 6 m/S 741 mmHg 80%
    12:00 +2°C° 0 mm 6 m/S 741 mmHg 79%
    13:00 +2°C° 0 mm 6 m/S 741 mmHg 79%
    14:00 +3°C° 0 mm 6 m/S 741 mmHg 78%
    15:00 +3°C° 0.1 mm 5 m/S 740 mmHg 78%
    16:00 +3°C° 0.1 mm 5 m/S 740 mmHg 79%
    17:00 +3°C° 0.1 mm 5 m/S 740 mmHg 79%
    18:00 +3°C° 0.1 mm 5 m/S 740 mmHg 79%
    19:00 +3°C° 0.1 mm 5 m/S 740 mmHg 79%
    20:00 +3°C° 0.1 mm 4 m/S 740 mmHg 78%
    21:00 +3°C° 0.2 mm 4 m/S 739 mmHg 78%
    22:00 +3°C° 0.2 mm 4 m/S 739 mmHg 79%
    23:00 +3°C° 0.2 mm 4 m/S 739 mmHg 79%

    Morgen, 22 Februar, Freitag

    Zeit Temperatur Niederschläge Wind Luftdruck Luftfeuchtigkeit
    00:00 +3°C° 0.4 mm 4 m/S 738 mmHg 81%
    01:00 +3°C° 0.4 mm 4 m/S 738 mmHg 83%
    02:00 +3°C° 0.4 mm 4 m/S 738 mmHg 84%
    03:00 +3°C° 0.4 mm 4 m/S 737 mmHg 85%
    04:00 +3°C° 0.4 mm 4 m/S 737 mmHg 86%
    05:00 +3°C° 0.4 mm 4 m/S 736 mmHg 87%
    06:00 +1°C° 0.7 mm 5 m/S 737 mmHg 89%
    07:00 0°C° 0.7 mm 5 m/S 737 mmHg 90%
    08:00 0°C° 0.7 mm 5 m/S 737 mmHg 91%
    09:00 -3°C° 0.5 mm 6 m/S 738 mmHg 88%
    10:00 -4°C° 0.5 mm 6 m/S 739 mmHg 85%
    11:00 -6°C° 0.5 mm 7 m/S 740 mmHg 82%
    12:00 -6°C° 0.1 mm 7 m/S 741 mmHg 77%
    13:00 -5°C° 0.1 mm 6 m/S 742 mmHg 73%
    14:00 -5°C° 0.1 mm 6 m/S 743 mmHg 68%
    15:00 -5°C° 0 mm 6 m/S 743 mmHg 66%
    16:00 -6°C° 0 mm 6 m/S 744 mmHg 65%
    17:00 -8°C° 0 mm 6 m/S 744 mmHg 63%
    18:00 -8°C° 0 mm 6 m/S 745 mmHg 63%
    19:00 -9°C° 0 mm 6 m/S 746 mmHg 63%
    20:00 -8°C° 0 mm 5 m/S 747 mmHg 62%
    21:00 -8°C° 0 mm 5 m/S 747 mmHg 61%
    22:00 -10°C° 0 mm 6 m/S 748 mmHg 60%
    23:00 -10°C° 0 mm 6 m/S 748 mmHg 58%

    übermorgen, 23 Februar, Samstag

    Zeit Temperatur Niederschläge Wind Luftdruck Luftfeuchtigkeit
    00:00 -10°C° 0 mm 6 m/S 749 mmHg 58%
    01:00 -10°C° 0 mm 6 m/S 749 mmHg 58%
    02:00 -10°C° 0 mm 5 m/S 749 mmHg 58%
    03:00 -10°C° 0 mm 5 m/S 750 mmHg 58%
    04:00 -10°C° 0 mm 5 m/S 750 mmHg 59%
    05:00 -11°C° 0 mm 5 m/S 750 mmHg 59%
    06:00 -11°C° 0 mm 5 m/S 750 mmHg 60%
    07:00 -11°C° 0 mm 5 m/S 751 mmHg 61%
    08:00 -11°C° 0 mm 5 m/S 751 mmHg 62%
    09:00 -11°C° 0 mm 5 m/S 751 mmHg 60%
    10:00 -10°C° 0 mm 5 m/S 751 mmHg 59%
    11:00 -9°C° 0 mm 4 m/S 752 mmHg 57%
    12:00 -8°C° 0 mm 5 m/S 752 mmHg 56%
    13:00 -8°C° 0 mm 5 m/S 752 mmHg 54%
    14:00 -7°C° 0 mm 5 m/S 752 mmHg 53%
    15:00 -7°C° 0 mm 5 m/S 752 mmHg 55%
    16:00 -8°C° 0 mm 4 m/S 751 mmHg 56%
    17:00 -8°C° 0 mm 4 m/S 751 mmHg 57%
    18:00 -8°C° 0 mm 4 m/S 752 mmHg 60%
    19:00 -7°C° 0 mm 3 m/S 752 mmHg 63%
    20:00 -8°C° 0 mm 3 m/S 752 mmHg 66%
    21:00 -8°C° 0 mm 3 m/S 752 mmHg 66%
    22:00 -7°C° 0 mm 2 m/S 752 mmHg 67%
    23:00 -7°C° 0 mm 2 m/S 752 mmHg 67%

    24 Februar, Sonntag

    Zeit Temperatur Niederschläge Wind Luftdruck Luftfeuchtigkeit
    00:00 -7°C° 0 mm 2 m/S 752 mmHg 68%
    01:00 -7°C° 0 mm 2 m/S 752 mmHg 69%
    02:00 -8°C° 0 mm 2 m/S 752 mmHg 70%
    03:00 -8°C° 0 mm 2 m/S 752 mmHg 70%
    04:00 -8°C° 0 mm 2 m/S 751 mmHg 71%
    05:00 -8°C° 0 mm 2 m/S 751 mmHg 71%
    06:00 -9°C° 0 mm 3 m/S 751 mmHg 69%
    07:00 -8°C° 0 mm 3 m/S 751 mmHg 67%
    08:00 -8°C° 0 mm 3 m/S 751 mmHg 64%
    09:00 -7°C° 0 mm 3 m/S 751 mmHg 59%
    10:00 -6°C° 0 mm 3 m/S 751 mmHg 53%
    11:00 -5°C° 0 mm 3 m/S 751 mmHg 47%
    12:00 -4°C° 0 mm 4 m/S 750 mmHg 45%
    13:00 -4°C° 0 mm 4 m/S 750 mmHg 42%
    14:00 -3°C° 0 mm 4 m/S 749 mmHg 39%
    15:00 -3°C° 0 mm 4 m/S 749 mmHg 41%
    16:00 -2°C° 0 mm 3 m/S 748 mmHg 43%
    17:00 -2°C° 0 mm 3 m/S 748 mmHg 45%
    18:00 -2°C° 0 mm 3 m/S 748 mmHg 46%
    19:00 -2°C° 0 mm 3 m/S 747 mmHg 47%
    20:00 -2°C° 0 mm 3 m/S 747 mmHg 48%
    21:00 -2°C° 0 mm 3 m/S 747 mmHg 48%
    22:00 -2°C° 0 mm 3 m/S 747 mmHg 49%
    23:00 -3°C° 0 mm 4 m/S 746 mmHg 50%

    25 Februar, Montag

    Zeit Temperatur Niederschläge Wind Luftdruck Luftfeuchtigkeit
    00:00 -3°C° 0 mm 4 m/S 746 mmHg 53%
    01:00 -3°C° 0 mm 4 m/S 745 mmHg 55%
    02:00 -3°C° 0 mm 4 m/S 745 mmHg 58%
    03:00 -4°C° 0.1 mm 5 m/S 744 mmHg 68%
    04:00 -4°C° 0.1 mm 5 m/S 744 mmHg 79%
    05:00 -4°C° 0.1 mm 5 m/S 743 mmHg 90%
    06:00 -4°C° 0.5 mm 5 m/S 743 mmHg 90%
    07:00 -4°C° 0.5 mm 5 m/S 743 mmHg 91%
    08:00 -4°C° 0.5 mm 6 m/S 743 mmHg 91%
    09:00 -3°C° 0.4 mm 6 m/S 743 mmHg 91%
    10:00 -3°C° 0.4 mm 6 m/S 743 mmHg 91%
    11:00 -2°C° 0.4 mm 6 m/S 742 mmHg 90%
    12:00 -2°C° 0.1 mm 7 m/S 743 mmHg 89%
    13:00 -1°C° 0.1 mm 7 m/S 743 mmHg 88%
    14:00 -1°C° 0.1 mm 7 m/S 743 mmHg 87%
    15:00 -1°C° 0 mm 7 m/S 743 mmHg 85%
    16:00 -2°C° 0 mm 7 m/S 743 mmHg 84%
    17:00 -2°C° 0 mm 6 m/S 743 mmHg 83%
    18:00 -2°C° 0 mm 6 m/S 744 mmHg 84%
    19:00 -2°C° 0 mm 5 m/S 744 mmHg 85%
    20:00 -2°C° 0 mm 4 m/S 745 mmHg 86%
    21:00 -4°C° 0 mm 5 m/S 745 mmHg 85%
    22:00 -4°C° 0 mm 5 m/S 745 mmHg 84%
    23:00 -4°C° 0 mm 5 m/S 745 mmHg 82%

    26 Februar, Dienstag

    Zeit Temperatur Niederschläge Wind Luftdruck Luftfeuchtigkeit
    00:00 -4°C° 0 mm 5 m/S 745 mmHg 85%
    01:00 -4°C° 0 mm 5 m/S 745 mmHg 87%
    02:00 -4°C° 0 mm 5 m/S 744 mmHg 89%
    03:00 -5°C° 0 mm 5 m/S 744 mmHg 90%
    04:00 -5°C° 0 mm 5 m/S 743 mmHg 91%
    05:00 -5°C° 0 mm 5 m/S 743 mmHg 92%
    06:00 -5°C° 0 mm 6 m/S 743 mmHg 91%
    07:00 -4°C° 0 mm 6 m/S 742 mmHg 89%
    08:00 -4°C° 0 mm 6 m/S 742 mmHg 87%
    09:00 -3°C° 0 mm 7 m/S 741 mmHg 84%
    10:00 -2°C° 0 mm 7 m/S 741 mmHg 80%
    11:00 -1°C° 0 mm 8 m/S 740 mmHg 76%
    12:00 -1°C° 0 mm 8 m/S 740 mmHg 76%
    13:00 0°C° 0 mm 8 m/S 739 mmHg 77%
    14:00 0°C° 0 mm 7 m/S 739 mmHg 77%
    15:00 0°C° 0 mm 7 m/S 738 mmHg 79%
    16:00 0°C° 0 mm 7 m/S 738 mmHg 81%
    17:00 +1°C° 0 mm 6 m/S 737 mmHg 83%
    18:00 0°C° 0 mm 7 m/S 737 mmHg 85%
    19:00 0°C° 0 mm 7 m/S 737 mmHg 86%
    20:00 0°C° 0 mm 7 m/S 737 mmHg 88%
    21:00 0°C° 0.2 mm 8 m/S 736 mmHg 88%
    22:00 0°C° 0.2 mm 9 m/S 735 mmHg 88%
    23:00 0°C° 0.2 mm 9 m/S 734 mmHg 88%
    Mehr zeigen